Regional Weather Roundup
Issued by NWS

Current Version | Previous Version | Text Only | Print | Product List | Glossary On
Versions: 1 2 3 4 5 6 7 8 9 10 11 12 13 14 15 16 17 18 19 20 21 22 23 24 25 26 27 28
000
ASUS45 KSLC 261810
RWRUT

UTAH REGIONAL WEATHER ROUNDUP
NATIONAL WEATHER SERVICE SALT LAKE CITY UT
1200 PM MDT FRI AUG 26 2016

UTZ001>011-023>025-261900-

NORTHERN UTAH

CITY           SKY/WX    TMP DP  RH WIND       PRES   REMARKS
BRIGHAM CITY     N/A     77  35  21 SW7       30.05S
HILL AFB       MOSUNNY   77  40  26 S10       30.06F
LOGAN          MOSUNNY   71  37  28 N6        30.05F
OGDEN          MOSUNNY   78  39  24 S7G17     30.04F
PROVO AIRPORT  MOSUNNY   75  39  27 VRB3      30.07F
SALT LAKE CITY PTSUNNY   81  39  22 S14G24    30.02F
VERNAL         SUNNY     67  43  41 E6        30.17F
WENDOVER       SUNNY     75  28  17 SE8       30.04F
HEBER CITY     MOSUNNY   72  37  28 SW18G26   30.10S
WEST JORDAN    SUNNY     77  41  27 SE15G23   30.05F

$$

UTZ012>022-026-027-261900-

SOUTHERN/CENTRAL UTAH

CITY           SKY/WX    TMP DP  RH WIND       PRES   REMARKS
BLANDING       SUNNY     64  48  56 SW5       30.33F
BRYCE CANYON   SUNNY     63  47  55 SE10      30.31F
CEDAR CITY     SUNNY     74  49  41 SW18G24   30.16S
MILFORD        SUNNY     76  47  35 SW22      30.10F
MOAB/CYNLANDS  SUNNY     73  49  42 CALM      30.15F
PRICE          MOSUNNY   65  44  46 VRB5      30.21F
ST GEORGE      CLEAR     82  52  34 CALM      30.06F

$$

REGIONAL REPORTS     COLORADO/ARIZONA

CITY           SKY/WX    TMP DP  RH WIND       PRES   REMARKS
CRAIG, CO      SUNNY     70  38  31 CALM      30.20F
GRAND JUNCTION SUNNY     69  47  45 SE5       30.18F
RIFLE          SUNNY     65  49  56 W3        30.20F
MONTROSE       SUNNY     67  48  50 VRB5      30.23F
CORTEZ         MOSUNNY   67  50  54 S5        30.26F
PAGE, AZ       SUNNY     74  54  49 E6        30.16F
GRAND CANYON   MOSUNNY   69  45  41 E7        30.30F
KINGMAN        MOSUNNY   84  49  29 MISG      30.07S
FLAGSTAFF      SUNNY     66  50  56 S6        30.32F

$$

REGIONAL REPORTS    NEVADA/IDAHO/WYOMING

CITY           SKY/WX    TMP DP  RH WIND       PRES   REMARKS
LAS VEGAS, NV  MOSUNNY   89  46  22 VRB6      29.94F
ELY            SUNNY     75  22  13 NW9       30.15F
ELKO           SUNNY     73  23  15 VRB3      30.09F
POCATELLO, ID  PTSUNNY   67  35  30 W8        30.07S
BURLEY         MOSUNNY   69  37  30 W6        30.04F
EVANSTON, WY   CLOUDY    70  31  23 SW13G25   30.17F
ROCK SPRINGS   SUNNY     66  32  28 W3        30.18F

$$




USA.gov is the U.S. government's official web portal to all federal, state and local government web resources and services.